Location: Sortland
(68.7020°N, 15.4240°E)
Time: 13:29:30
(UTC+01:00)

Envisat - Pass Details

Date: 29 October 2019
Orbit: 764 x 766 km, 98.1° (Epoch: 22 November)

Event Time Altitude Azimuth Distance (km) Brightness Sun altitude
Rises 16:21:49 0° 138° (SE) 3,235 6.1 -5.5°
Reaches altitude 10° 16:24:08 10° 136° (SE) 2,311 5.3 -5.7°
Maximum altitude 16:29:09 62° 57° (ENE) 866 3.0 -6.1°
Drops below altitude 10° 16:34:11 10° 337° (NNW) 2,320 5.5 -6.6°
Sets 16:36:31 0° 335° (NNW) 3,249 6.3 -6.8°
